Date String (YYYY-MM-DD hh:mm:ss) UTC,Instrument flags,Ambient pressure (hPa),Sample flow (lpm),Bypass flow (lpm),Sample temperature (°C),Ambient temperature (°C),ASC tube jacket temperature (°C),LED temperature (°C),Box temperature (°C),Sample RH (%),Span deviation,Mass concentration (μg/m³),Mass concentration (μg/m³),Mass concentration (μg/m³)
DateTimeUTC,F1_M11,P_M11,Q1_M11,Q2_M11,T1_M11,T2_M11,T3_M11,T4_M11,T5_M11,U1_M11,ZSPAN_M11,X0_M11,X2_M11,X1_M11
2023-05-04 18:00:00,,0824.4,4.99,0.00,28.2,26.9,00.0,36.5,29.9,15.1,0000.0,0011.24,0004.27,0002.72
2023-05-04 18:01:00,,0824.4,5.00,0.00,28.2,26.9,00.0,36.5,29.9,15.2,0000.0,0010.66,0004.28,0002.75
2023-05-04 18:02:00,,0824.4,5.00,0.00,28.3,26.9,00.0,36.5,29.9,15.1,0000.0,0010.17,0004.31,0002.75
2023-05-04 18:03:00,,0824.4,5.01,0.00,28.3,27.0,00.0,36.6,29.9,15.8,0000.0,0009.83,0004.37,0002.78
2023-05-04 18:04:00,,0824.3,5.00,0.00,28.3,27.0,00.0,36.6,29.9,16.2,0000.0,0009.45,0004.34,0002.79
2023-05-04 18:05:00,,0824.3,5.00,0.00,28.3,27.0,00.0,36.6,29.9,18.9,0000.0,0009.37,0004.32,0002.82
2023-05-04 18:06:00,,0824.3,5.00,0.00,28.3,27.0,00.0,36.6,29.9,21.2,0000.0,0010.67,0004.37,0002.90
2023-05-04 18:07:00,,0824.3,5.00,0.00,28.3,27.0,00.0,36.6,30.0,21.3,0000.0,0012.63,0004.47,0003.02
2023-05-04 18:08:00,,0824.4,4.99,0.00,28.3,27.1,00.0,36.6,30.0,21.3,0000.0,0013.78,0004.58,0003.10
2023-05-04 18:09:00,,0824.3,4.99,0.00,28.4,27.1,00.0,36.6,30.0,21.5,0000.0,0014.81,0004.74,0003.18
2023-05-04 18:10:00,,0824.4,4.99,0.00,28.4,27.1,00.0,36.7,30.0,20.9,0000.0,0017.35,0004.94,0003.25
2023-05-04 18:11:00,,0824.4,5.00,0.00,28.4,27.1,00.0,36.7,30.0,20.8,0000.0,0019.30,0005.12,0003.32
2023-05-04 18:12:00,,0824.4,5.00,0.00,28.4,27.1,00.0,36.7,30.1,20.6,0000.0,0020.16,0005.27,0003.39
2023-05-04 18:13:00,,0824.4,5.00,0.00,28.4,27.1,00.0,36.7,30.1,20.4,0000.0,0021.05,0005.44,0003.46
2023-05-04 18:14:00,,0824.4,5.01,0.00,28.4,27.1,00.0,36.7,30.1,20.4,0000.0,0021.92,0005.60,0003.53
2023-05-04 18:15:00,,0824.4,5.00,0.00,28.4,27.1,00.0,36.7,30.1,20.3,0000.0,0022.86,0005.68,0003.59
2023-05-04 18:16:00,,0824.5,4.99,0.00,28.4,27.1,00.0,36.7,30.1,20.5,0000.0,0024.58,0005.80,0003.63
2023-05-04 18:17:00,,0824.5,5.00,0.00,28.4,27.1,00.0,36.7,30.1,20.5,0000.0,0024.82,0005.90,0003.65
2023-05-04 18:18:00,,0824.4,5.00,0.00,28.4,27.0,00.0,36.7,30.1,20.7,0000.0,0023.65,0006.00,0003.66
2023-05-04 18:19:00,,0824.5,5.01,0.00,28.4,27.0,00.0,36.7,30.1,20.7,0000.0,0024.58,0006.06,0003.67
2023-05-04 18:20:00,,0824.5,5.00,0.00,28.4,27.0,00.0,36.7,30.1,20.9,0000.0,0024.99,0006.05,0003.67
2023-05-04 18:21:00,,0824.5,5.00,0.00,28.4,27.0,00.0,36.8,30.1,20.5,0000.0,0024.87,0006.00,0003.67
2023-05-04 18:22:00,,0824.5,4.99,0.00,28.4,27.0,00.0,36.8,30.1,20.5,0000.0,0024.48,0006.02,0003.67
2023-05-04 18:23:00,,0824.5,5.00,0.00,28.4,27.0,00.0,36.8,30.1,20.5,0000.0,0026.12,0006.09,0003.67
2023-05-04 18:24:00,,0824.5,5.00,0.00,28.4,27.0,00.0,36.8,30.1,20.5,0000.0,0027.01,0006.14,0003.66
2023-05-04 18:25:00,,0824.5,5.01,0.00,28.4,27.0,00.0,36.8,30.0,20.8,0000.0,0027.69,0006.10,0003.65
2023-05-04 18:26:00,,0824.5,5.00,0.00,28.4,27.0,00.0,36.8,30.0,20.9,0000.0,0028.72,0006.16,0003.67
2023-05-04 18:27:00,,0824.4,5.00,0.00,28.4,27.0,00.0,36.8,30.1,20.9,0000.0,0028.79,0006.22,0003.68
2023-05-04 18:28:00,,0824.5,5.00,0.00,28.4,27.0,00.0,36.8,30.1,20.9,0000.0,0029.06,0006.21,0003.69
2023-05-04 18:29:00,,0824.5,5.01,0.00,28.5,27.0,00.0,36.8,30.1,20.5,0000.0,0029.66,0006.26,0003.70
2023-05-04 18:30:00,,0824.4,5.01,0.00,28.4,27.0,00.0,36.8,30.1,20.0,0000.0,0029.46,0006.26,0003.70
2023-05-04 18:31:00,,0824.5,5.00,0.00,28.4,27.0,00.0,36.8,30.1,20.3,0000.0,0028.52,0006.20,0003.69
2023-05-04 18:32:00,,0824.3,5.00,0.00,28.4,27.0,00.0,36.8,30.1,20.7,0000.0,0028.14,0006.17,0003.68
2023-05-04 18:33:00,,0824.4,5.00,0.00,28.4,27.0,00.0,36.8,30.1,20.3,0000.0,0027.48,0006.20,0003.70
2023-05-04 18:34:00,,0824.4,5.00,0.00,28.5,27.0,00.0,36.8,30.1,20.8,0000.0,0026.93,0006.17,0003.72
2023-05-04 18:35:00,,0824.4,5.00,0.00,28.5,27.1,00.0,36.8,30.1,20.7,0000.0,0025.96,0006.11,0003.74
2023-05-04 18:36:00,,0824.4,4.99,0.00,28.5,27.1,00.0,36.8,30.1,20.6,0000.0,0025.17,0006.14,0003.76
2023-05-04 18:37:00,,0824.4,5.01,0.00,28.5,27.1,00.0,36.8,30.1,20.7,0000.0,0023.72,0006.16,0003.79
2023-05-04 18:38:00,,0824.5,5.01,0.00,28.5,27.1,00.0,36.8,30.1,20.5,0000.0,0023.88,0006.21,0003.82
2023-05-04 18:39:00,,0824.5,5.01,0.00,28.5,27.0,00.0,36.8,30.1,20.5,0000.0,0023.14,0006.27,0003.85
2023-05-04 18:40:00,,0824.4,4.99,0.00,28.5,27.0,00.0,36.8,30.1,20.3,0000.0,0022.59,0006.19,0003.88
2023-05-04 18:41:00,,0824.4,5.00,0.00,28.5,27.0,00.0,36.8,30.1,20.7,0000.0,0022.22,0006.13,0003.92
2023-05-04 18:42:00,,0824.4,5.00,0.00,28.5,27.0,00.0,36.8,30.1,20.2,0000.0,0023.12,0006.24,0003.99
2023-05-04 18:43:00,,0824.4,5.00,0.00,28.5,27.1,00.0,36.8,30.1,20.2,0000.0,0024.52,0006.45,0004.09
2023-05-04 18:44:00,,0824.4,5.00,0.00,28.5,27.1,00.0,36.9,30.1,20.1,0000.0,0025.32,0006.52,0004.19
2023-05-04 18:45:00,,0824.4,5.00,0.00,28.5,27.1,00.0,36.9,30.1,20.1,0000.0,0025.43,0006.69,0004.28
2023-05-04 18:46:00,,0824.4,5.01,0.00,28.5,27.1,00.0,36.9,30.1,20.0,0000.0,0026.49,0006.83,0004.39
2023-05-04 18:47:00,,0824.4,5.01,0.00,28.5,27.1,00.0,36.9,30.1,20.4,0000.0,0028.46,0006.95,0004.49
2023-05-04 18:48:00,,0824.3,5.01,0.00,28.5,27.1,00.0,36.9,30.1,20.3,0000.0,0029.71,0007.07,0004.60
2023-05-04 18:49:00,,0824.4,4.99,0.00,28.5,27.1,00.0,36.9,30.2,20.3,0000.0,0029.68,0007.17,0004.72
2023-05-04 18:50:00,,0824.4,5.00,0.00,28.5,27.2,00.0,36.9,30.2,20.3,0000.4,0029.24,0007.22,0004.83
2023-05-04 18:51:00,,0824.4,4.99,0.00,28.6,27.2,00.0,36.9,30.2,20.2,0003.4,0029.94,0007.36,0004.95
2023-05-04 18:52:00,,0824.4,5.00,0.00,28.6,27.2,00.0,36.9,30.2,20.2,0000.0,0030.95,0007.58,0005.08
2023-05-04 18:53:00,,0824.4,5.01,0.00,28.6,27.3,00.0,36.9,30.2,20.2,0000.0,0031.11,0007.71,0005.18
2023-05-04 18:54:00,,0824.4,4.99,0.00,28.6,27.2,00.0,36.9,30.2,20.1,0000.0,0030.56,0007.78,0005.26
2023-05-04 18:55:00,,0824.4,4.99,0.00,28.6,27.3,00.0,36.9,30.2,20.2,0000.0,0029.40,0007.86,0005.31
2023-05-04 18:56:00,,0824.4,5.00,0.00,28.6,27.3,00.0,36.9,30.3,19.9,0000.0,0028.74,0007.84,0005.35
2023-05-04 18:57:00,,0824.3,5.01,0.00,28.6,27.3,00.0,36.9,30.3,19.3,0000.0,0027.56,0007.82,0005.34
2023-05-04 18:58:00,,0824.4,4.99,0.00,28.7,27.3,00.0,37.0,30.3,20.0,0000.0,0027.10,0007.77,0005.35
2023-05-04 18:59:00,,0824.3,5.00,0.00,28.7,27.3,00.0,37.0,30.3,20.2,0000.0,0030.22,0007.86,0005.37
